Home   Weather   Launceston   Past weeks
Flag for Australia

Past Weather in Launceston, Tasmania, Australia — Yesterday and Last 2 Weeks

Now
48 °F

Sprinkles. Overcast.


Feels Like: 41 °F
Forecast: 55 / 39 °F
Wind: 21 mph from North

Location: Launceston Airport

Current Time: Jul 18, 2019 at 9:27:36 pm

Latest Report: Jul 18, 2019 at 9:00 pm


Visibility: 5 mi

Pressure: 29.68 "Hg

Humidity: 94%

Dew Point: 46 °F

Location of LauncestonLocation

Past Weather in Launceston — Graph

°F

Launceston Temperature Yesterday

Maximum temperature yesterday: 54 °F (at 11:37 am)
Minimum temperature yesterday: 41 °F (at 10:00 pm)
Average temperature yesterday: 47 °F

High & Low Weather Summary for the Past Weeks

 TemperatureHumidityPressure
High61 °F (Jul 6, 2:30 pm)100% (Jul 4, 12:30 am)30.74 "Hg (Jul 4, 12:30 am)
Low32 °F (Jul 4, 3:00 am)45% (Jul 16, 2:30 pm)29.09 "Hg (Jul 11, 3:30 am)
Average44 °F83%29.92 "Hg
* Reported Jul 3 8:00 pm — Jul 18 8:02 pm, Launceston. Weather by CustomWeather, © 2019

Note: Actual official high and low records may vary slightly from our data, if they occured in-between our weather recording intervals... More about our weather records

Advertising

Launceston Weather History for the Previous 24 Hours

Scroll right to see more
 ConditionsComfort  
Time TempWeatherWind HumidityBarometerVisibility
8:02 pm
Thu, Jul 18
48 °FDrizzle. Mostly cloudy.17 mph94%29.71 "Hg5 mi
7:38 pm46 °FLight rain. Partly cloudy.12 mph87%29.71 "Hg3 mi
7:00 pm48 °FMostly cloudy.13 mph76%29.74 "HgN/A
6:30 pm46 °FOvercast.13 mph82%29.74 "HgN/A
6:00 pm46 °FPassing clouds.15 mph82%29.77 "HgN/A
5:30 pm46 °FClear.14 mph76%29.77 "HgN/A
5:00 pm46 °FSunny.12 mph76%29.77 "HgN/A
4:30 pm46 °FPartly sunny.10 mph76%29.77 "HgN/A
4:00 pm48 °FPartly sunny.14 mph71%29.80 "HgN/A
3:30 pm48 °FSunny.15 mph71%29.80 "HgN/A
3:00 pm48 °FSunny.15 mph71%29.80 "HgN/A
2:30 pm48 °FScattered clouds.17 mph66%29.80 "HgN/A
2:00 pm50 °FSunny.15 mph62%29.80 "HgN/A
1:30 pm50 °FSunny.15 mph67%29.80 "HgN/A
1:00 pm48 °FSunny.13 mph66%29.80 "HgN/A
12:00 pm48 °FSunny.16 mph66%29.83 "HgN/A
11:30 am46 °FSunny.15 mph66%29.86 "HgN/A
11:00 am46 °FSunny.15 mph66%29.86 "HgN/A
10:30 am45 °FSunny.10 mph66%29.86 "HgN/A
10:00 am43 °FSunny.9 mph71%29.86 "HgN/A
9:30 am41 °FSunny.10 mph76%29.86 "HgN/A
9:00 am39 °FSunny.7 mph75%29.86 "HgN/A
8:30 am36 °FSunny.6 mph81%29.83 "HgN/A
8:00 am34 °FSunny.5 mph87%29.83 "HgN/A
7:30 am36 °FClear.7 mph75%29.83 "HgN/A
7:00 am39 °FClear.5 mph70%29.80 "HgN/A
6:30 am39 °FClear.7 mph70%29.80 "HgN/A
6:00 am37 °FClear.5 mph70%29.77 "HgN/A
5:30 am39 °FClear.8 mph70%29.77 "HgN/A
5:00 am41 °FClear.6 mph70%29.77 "HgN/A
4:00 am37 °FClear.7 mph81%29.74 "HgN/A
3:30 am37 °FClear.6 mph75%29.74 "HgN/A
3:00 am39 °FClear.3 mph75%29.74 "HgN/A
2:30 am39 °FClear.5 mph81%29.74 "HgN/A
2:00 am37 °FClear.12 mph81%29.71 "HgN/A
1:30 am37 °FPassing clouds.10 mph87%29.68 "HgN/A
1:00 am37 °FClear.8 mph81%29.68 "HgN/A
12:30 am43 °FClear.16 mph76%29.65 "HgN/A
12:00 am43 °FPassing clouds.15 mph71%29.65 "HgN/A
11:30 pm
Wed, Jul 17
41 °FSprinkles. Partly cloudy.12 mph76%29.65 "HgN/A
11:00 pm43 °FLight rain. Partly cloudy.13 mph76%29.65 "HgN/A
10:30 pm41 °FPassing clouds.9 mph81%29.65 "HgN/A
10:00 pm41 °FPassing clouds.8 mph70%29.62 "HgN/A
9:30 pm43 °FClear.10 mph71%29.62 "HgN/A
9:00 pm43 °FClear.14 mph71%29.62 "HgN/A
Weather by CustomWeather, © 2019

See weather overview